{"data":{"norad_id":63136,"intl_designator":"2025-043E","name":"STARLINK-11613 [DTC]","alt_names":[],"object_type":"PAYLOAD","status":"ACTIVE","operator":null,"country":"US","launch_date":"2025-03-03","launch_site_code":"AFETR","launch_vehicle":null,"mission":null,"orbit_class":"UNKNOWN","rcs_meters":null,"size_class":null,"mass_kg":null,"dimensions":null,"purposes":["comms"],"wikipedia_slug":null,"has_3d_model":false,"image_url":null,"decayed_at":null,"tle_current":{"epoch":"2026-09-21T02:44:15.424224Z","epoch_age_seconds":109140,"freshness":"FRESH","line1":"1 63136U 25043E   26264.11406741  .00147237  00000+0  11289-2 0  9993","line2":"2 63136  42.9994 153.0951 0001421 302.6319  57.4412 15.70879182 90206","mean_motion":15.70879182,"eccentricity":0.0001421,"inclination_deg":42.9994,"raan_deg":153.0951,"arg_perigee_deg":302.6319,"mean_anomaly_deg":57.4412,"bstar":0.0011289,"rev_number":9020,"period_min":91.668411963206,"perigee_km":355.42609910473,"apogee_km":357.34004970987,"semimajor_km":6734.5200744073,"source":"CELESTRAK","updated_at":"2026-09-22T09:00:49.790518Z"}}}